Wind_Speed
67 68 68 66 67 65 68 70 76 76 81 75 73 65 66 66 68 66 65 69 74 76 80 85 84 79 71 73 81 77 77 81 80 72 71 72 68 72 67 66 76 80 79 75
68 66 67 71 69 68 69 71 73 73 76 75 76 79 73 74 74 65 69 78 74 76 85 90 88 92 88 86 84 86 93 94 90 82 76 77 78 80 81 78 74 78 84 80
77 71 74 79 73 73 75 73 76 81 79 79 78 77 76 75 79 81 81 73 74 76 76 81 82 91 96 93 88 87 89 87 82 79 78 79 81 82 84 84 81 77 75 73
79 76 83 80 76 78 80 80 80 81 83 83 84 83 81 78 81 86 90 91 84 84 76 79 81 84 83 83 91 92 85 80 80 79 80 88 87 88 88 86 84 84 79 77
81 81 83 80 77 78 80 83 84 84 84 85 84 83 81 83 84 83 84 85 88 92 89 81 77 81 83 86 92 85 86 89 83 86 84 86 88 91 97 98 93 90 88 83
79 81 83 81 80 81 82 83 83 84 83 83 84 85 82 84 86 86 88 87 87 85 88 89 95 93 91 92 87 85 96 90 84 88 88 89 90 89 81 89 97 94 93 80
74 76 78 76 74 74 76 77 79 80 81 82 84 85 85 85 87 88 88 89 91 92 93 92 91 91 95 101 100 91 90 88 88 90 90 86 84 71 69 66 67 78 79 82
71 73 75 72 71 72 72 73 75 77 79 81 84 86 87 87 86 87 87 87 88 90 91 94 97 102 104 103 95 96 93 92 92 82 81 81 80 69 72 67 63 64 64 63
65 66 63 63 65 66 69 72 73 76 78 81 82 83 84 85 85 86 88 89 90 92 90 89 92 95 98 101 107 100 98 93 90 85 76 70 70 67 65 69 67 68 73 75
59 57 60 61 62 65 67 70 71 73 75 77 78 79 81 83 84 85 86 88 89 89 90 89 90 92 94 97 101 109 105 99 96 94 79 72 71 76 75 74 73 75 71 66
58 58 59 60 62 64 65 65 66 67 69 71 72 74 76 78 79 80 81 82 82 83 85 87 88 90 91 93 96 98 102 112 112 112 108 96 93 91 85 85 83 76 77 68
57 55 56 61 60 61 60 60 61 61 59 62 68 72 74 75 75 76 77 76 77 77 80 80 81 81 83 86 90 93 96 97 99 109 113 118 112 104 94 85 83 86 72 69
57 54 53 49 50 53 56 57 58 60 64 67 65 68 70 70 70 72 72 74 75 76 76 77 76 74 73 76 80 82 85 87 91 94 98 98 107 103 90 86 86 90 79 69
48 48 51 51 53 50 51 54 58 64 65 64 66 68 70 69 68 70 70 71 72 69 64 62 60 60 63 65 67 68 70 72 76 79 83 80 84 91 90 90 91 96 91 73
50 49 49 49 47 49 54 61 62 60 61 62 66 68 68 71 71 67 62 60 59 60 61 62 61 58 59 58 57 58 60 61 62 64 68 72 71 75 86 96 96 97 86 78
47 44 44 49 54 58 58 58 58 57 59 59 62 64 67 66 60 57 59 57 53 51 56 54 52 50 49 48 48 49 49 51 53 56 58 59 61 63 70 82 95 106 104 95
45 50 48 48 51 53 52 53 54 56 58 60 60 58 56 48 50 55 54 52 48 45 41 40 38 36 38 40 41 38 38 40 42 43 45 47 49 48 50 52 57 62 75 79
43 46 45 42 44 47 51 50 50 50 51 50 47 42 37 42 48 56 55 45 41 35 33 33 28 28 32 31 28 29 26 25 27 30 32 34 36 37 40 40 42 47 52 56
43 45 48 48 52 49 47 49 51 49 46 42 32 28 32 35 45 54 49 40 33 26 28 27 23 22 23 23 19 16 15 16 16 18 18 18 21 27 31 33 33 36 41 43
49 50 49 53 58 53 51 51 46 45 35 24 19 23 25 25 34 39 38 32 22 16 21 27 28 21 17 17 18 16 12 8 11 13 14 15 13 13 13 17 24 27 25 24
51 54 57 64 58 56 53 47 47 30 20 13 15 16 15 15 22 32 34 31 22 16 18 22 27 29 25 20 16 14 14 13 14 15 17 18 19 18 21 22 22 26 29 30
56 61 63 60 56 51 50 51 28 16 11 11 10 7 8 15 22 28 34 38 39 37 29 26 25 24 22 18 14 12 10 8 7 6 7 9 11 15 20 24 23 26 27 29
58 62 59 54 55 51 42 24 17 13 10 9 6 1 6 12 18 25 30 34 36 36 38 38 37 38 37 35 31 25 19 14 8 6 7 9 13 16 18 20 20 21 22 22
60 59 56 50 40 30 18 18 15 12 11 9 5 1 5 9 14 18 22 26 29 31 32 33 33 34 35 34 34 33 32 30 25 17 9 4 8 11 14 20 24 25 23 22
60 56 42 31 23 15 17 15 13 13 11 8 6 3 2 6 11 14 18 21 24 27 29 29 30 31 31 30 29 29 29 28 27 26 24 21 18 14 10 5 1 8 10 11
42 29 19 11 15 17 15 14 14 12 10 8 6 4 1 4 8 11 15 18 20 22 24 26 27 28 29 30 31 30 28 25 23 21 19 16 13 10 7 5 4 5 7 8
23 12 9 15 17 17 16 14 13 11 9 7 6 5 5 7 9 12 15 17 20 22 24 25 26 26 27 28 29 29 28 27 24 22 19 16 14 11 8 6 5 4 4 5
Wind_Direction
274 274 274 274 273 270 268 269 274 274 274 274 275 274 276 279 270 264 266 262 262 261 260 261 259 251 247 247 249 252 254 261 266 265 264 262 262 262 257 262 262 264 264 265
275 275 276 274 273 275 275 276 275 270 269 271 273 277 277 268 264 266 266 259 261 263 262 263 259 258 254 255 263 264 264 262 265 267 260 252 256 260 262 264 262 263 263 265
274 275 273 270 278 276 276 274 271 273 275 277 279 279 277 268 264 265 269 276 271 266 261 260 262 263 263 267 268 268 270 267 263 258 258 255 259 256 256 257 257 256 258 262
273 272 271 277 276 274 274 275 276 277 278 278 278 277 278 274 270 268 268 265 267 269 257 260 265 263 262 262 269 266 267 267 257 252 255 257 256 253 254 253 255 254 255 258
270 272 273 272 276 277 277 279 280 280 279 280 280 280 280 280 278 275 272 268 264 262 261 264 265 267 265 268 263 260 264 263 256 256 261 261 266 266 257 255 253 256 260 259
271 272 273 273 274 274 276 276 277 277 277 278 278 277 277 276 275 276 276 275 273 270 269 267 262 261 259 260 259 262 261 258 260 264 265 265 269 268 262 258 259 260 261 260
274 276 276 277 277 277 277 279 277 279 280 279 279 279 280 278 277 276 274 272 270 269 267 264 264 264 260 261 266 266 264 260 263 267 265 262 262 263 268 269 265 263 265 267
272 273 276 278 279 279 278 276 278 278 278 279 281 282 282 282 281 281 280 278 276 274 271 269 268 267 264 267 268 266 267 265 266 261 258 256 256 265 268 270 259 257 260 262
272 275 277 280 277 275 276 277 276 279 281 281 281 282 281 281 281 281 280 279 277 277 275 272 271 269 267 265 265 263 260 260 257 253 256 260 261 261 266 268 263 250 254 257
277 279 279 277 276 277 278 280 281 282 282 283 284 284 284 284 283 282 281 280 280 279 277 274 272 270 268 265 263 257 256 253 256 254 253 258 261 263 263 267 268 253 258 255
277 279 278 277 279 282 284 285 285 285 284 285 286 286 287 286 287 287 287 286 285 284 281 278 275 273 272 270 267 262 259 255 254 259 256 254 258 260 261 267 264 252 253 255
282 281 283 283 283 284 285 285 287 289 289 289 290 291 292 292 293 292 291 289 287 284 283 281 279 276 273 271 269 267 263 260 257 254 258 258 260 262 263 262 260 249 251 252
285 284 286 288 288 285 285 288 289 290 293 296 298 296 296 296 297 296 295 293 291 289 287 286 285 283 279 275 272 269 267 264 261 256 255 257 258 261 259 254 252 243 250 249
283 286 285 288 291 288 286 288 290 296 299 299 298 300 301 300 301 300 298 295 294 295 295 293 290 287 283 278 274 271 268 267 265 262 260 257 253 251 249 246 243 242 245 242
286 285 287 289 287 287 289 292 296 297 297 297 297 299 299 303 304 303 301 300 300 300 297 294 292 290 288 286 281 276 270 266 264 262 260 258 254 249 245 242 241 236 235 243
285 286 286 287 287 290 294 295 297 297 297 297 298 299 303 303 304 306 304 306 306 300 293 292 292 292 290 289 283 277 271 267 263 261 261 259 257 250 247 245 245 244 248 254
284 288 289 292 294 294 296 298 299 299 297 296 298 302 301 304 307 308 319 322 315 304 301 306 303 299 297 293 287 278 273 268 264 262 262 260 257 254 251 247 243 240 243 245
289 290 292 294 302 297 293 291 295 298 300 300 300 301 305 312 318 326 330 324 321 314 318 320 317 314 310 303 297 288 276 268 264 261 261 262 262 258 252 246 240 236 237 239
291 290 293 292 304 299 295 294 295 299 302 295 296 303 312 324 331 327 328 329 328 329 339 341 333 326 333 344 325 299 280 271 268 267 273 265 255 246 242 241 237 233 234 236
290 291 296 298 304 300 298 298 297 305 291 281 294 307 320 337 347 346 351 355 360 8 357 2 2 351 342 345 358 3 356 324 274 261 250 262 260 224 223 227 233 230 232 227
289 290 294 301 302 301 300 298 303 289 261 278 294 310 333 351 8 19 22 24 20 12 4 6 10 13 13 6 354 339 326 309 287 271 265 261 255 247 237 245 238 236 235 237
294 296 299 300 299 298 298 299 286 237 239 263 280 314 5 26 26 28 33 38 41 40 32 19 12 6 5 6 6 359 347 337 314 285 273 262 253 244 239 242 243 237 240 243
294 296 298 298 298 296 292 276 223 213 228 242 237 267 32 36 39 36 35 36 38 40 42 42 41 43 44 42 38 30 18 3 348 306 265 243 235 238 240 248 250 247 244 238
297 297 299 298 293 287 256 206 198 205 212 208 201 183 48 43 41 41 37 35 33 33 35 36 36 37 39 39 38 38 37 39 39 36 26 314 274 262 255 248 244 247 243 240
295 298 291 287 284 229 192 186 189 192 196 197 192 166 86 45 31 22 22 24 23 23 23 23 23 24 24 24 25 28 30 32 32 29 28 28 26 20 17 25 254 243 246 240
297 288 282 260 197 180 176 179 181 190 193 196 194 193 187 356 359 360 3 6 8 8 9 9 9 8 8 7 7 6 6 8 10 11 15 22 29 40 52 69 99 143 170 185
284 273 199 187 178 173 174 177 185 189 194 199 209 234 277 313 329 337 343 345 347 349 350 350 351 352 353 353 353 352 351 348 344 338 332 331 330 328 326 321 312 299 298 303
Height
5580 5578 5575 5573 5573 5578 5571 5567 5556 5560 5555 5547 5555 5557 5558 5556 5555 5555 5556 5557 5557 5558 5559 5558 5557 5557 5557 5557 5557 5558 5558 5560 5562 5564 5565 5566 5565 5564 5565 5566 5568 5567 5565 5566
5557 5564 5554 5548 5554 5555 5555 5553 5541 5538 5535 5533 5535 5537 5538 5536 5536 5533 5531 5534 5535 5536 5535 5532 5531 5529 5533 5533 5532 5533 5533 5534 5536 5538 5541 5541 5543 5543 5546 5546 5547 5546 5547 5548
5533 5546 5533 5524 5543 5536 5529 5529 5522 5521 5520 5515 5513 5514 5512 5514 5513 5510 5508 5508 5511 5509 5508 5507 5504 5504 5505 5507 5508 5510 5509 5508 5511 5513 5516 5517 5519 5519 5520 5521 5522 5525 5526 5526
5513 5520 5504 5519 5520 5513 5509 5504 5503 5499 5494 5493 5493 5491 5487 5489 5487 5487 5486 5485 5485 5484 5483 5482 5481 5480 5482 5480 5482 5482 5482 5482 5486 5487 5491 5493 5493 5494 5496 5497 5499 5501 5503 5505
5496 5495 5491 5498 5498 5491 5486 5481 5480 5475 5472 5470 5469 5469 5467 5461 5458 5459 5458 5459 5458 5457 5458 5455 5455 5456 5458 5458 5455 5455 5458 5458 5459 5462 5465 5466 5467 5469 5471 5472 5473 5476 5479 5482
5479 5474 5467 5476 5478 5473 5469 5462 5460 5452 5450 5446 5443 5442 5448 5440 5435 5434 5431 5429 5428 5428 5428 5425 5425 5427 5428 5429 5427 5428 5430 5430 5431 5433 5435 5439 5441 5439 5442 5445 5447 5448 5452 5457
5460 5451 5450 5455 5457 5452 5446 5445 5434 5429 5425 5420 5415 5414 5415 5417 5412 5408 5407 5405 5401 5400 5401 5400 5397 5393 5396 5396 5395 5398 5400 5402 5405 5405 5408 5411 5415 5415 5416 5418 5423 5428 5431 5434
5443 5437 5432 5436 5435 5433 5424 5418 5415 5409 5403 5398 5396 5393 5387 5386 5385 5378 5377 5375 5372 5368 5371 5371 5368 5363 5363 5364 5364 5366 5370 5375 5378 5381 5382 5384 5387 5390 5392 5397 5400 5405 5407 5410
5423 5421 5423 5421 5414 5409 5399 5395 5397 5391 5387 5378 5374 5372 5367 5362 5360 5355 5348 5344 5340 5335 5338 5342 5336 5330 5332 5333 5329 5333 5338 5345 5351 5351 5353 5355 5361 5366 5370 5374 5379 5383 5388 5392
5407 5414 5402 5398 5393 5387 5384 5379 5379 5373 5366 5358 5351 5348 5342 5337 5334 5328 5323 5316 5310 5307 5305 5306 5304 5300 5297 5296 5295 5299 5304 5312 5317 5322 5326 5329 5336 5342 5346 5352 5356 5361 5365 5370
5388 5391 5381 5380 5377 5370 5366 5362 5358 5354 5347 5339 5331 5327 5319 5315 5310 5303 5297 5292 5283 5277 5273 5272 5270 5270 5266 5261 5259 5264 5268 5277 5285 5286 5293 5299 5307 5316 5322 5328 5335 5337 5343 5348
5371 5373 5361 5360 5363 5355 5351 5345 5339 5333 5329 5323 5315 5307 5299 5295 5287 5279 5272 5265 5257 5250 5241 5240 5238 5238 5233 5230 5226 5227 5232 5239 5245 5253 5257 5265 5275 5285 5294 5302 5308 5314 5319 5326
5354 5353 5349 5346 5342 5339 5334 5329 5323 5317 5310 5305 5301 5289 5282 5274 5267 5257 5249 5240 5231 5224 5218 5211 5208 5207 5203 5198 5195 5197 5198 5205 5209 5217 5226 5232 5241 5252 5262 5270 5280 5289 5295 5304
5339 5337 5335 5331 5326 5322 5318 5314 5309 5303 5295 5287 5280 5274 5263 5256 5250 5239 5228 5217 5207 5200 5194 5187 5182 5179 5174 5169 5167 5167 5169 5173 5177 5183 5189 5199 5208 5219 5228 5240 5250 5264 5271 5278
5326 5323 5320 5316 5311 5307 5303 5299 5294 5288 5281 5275 5266 5258 5248 5239 5230 5222 5213 5202 5192 5183 5174 5165 5160 5158 5152 5147 5145 5143 5144 5147 5149 5154 5159 5166 5175 5187 5197 5207 5221 5230 5241 5249
5311 5308 5306 5302 5298 5293 5288 5283 5277 5273 5267 5260 5253 5245 5236 5225 5215 5206 5197 5186 5176 5167 5157 5149 5143 5137 5132 5128 5124 5123 5123 5124 5127 5132 5137 5143 5150 5161 5169 5179 5191 5203 5213 5221
5298 5295 5290 5287 5283 5279 5273 5268 5263 5258 5252 5246 5239 5232 5224 5217 5208 5196 5182 5169 5157 5148 5141 5136 5130 5123 5118 5113 5109 5107 5107 5108 5110 5115 5121 5126 5131 5138 5146 5155 5166 5175 5187 5195
5284 5281 5278 5274 5271 5267 5262 5256 5251 5245 5239 5232 5227 5221 5216 5209 5199 5183 5170 5158 5146 5136 5132 5125 5119 5114 5108 5102 5099 5096 5096 5098 5101 5105 5108 5113 5118 5124 5131 5138 5147 5156 5164 5171
5271 5268 5265 5261 5256 5251 5247 5242 5237 5233 5227 5221 5218 5215 5210 5203 5192 5177 5163 5150 5139 5133 5128 5121 5114 5109 5104 5098 5092 5090 5091 5093 5096 5100 5103 5106 5109 5113 5119 5126 5134 5142 5149 5154
5258 5255 5251 5247 5241 5236 5231 5226 5222 5220 5214 5212 5211 5209 5205 5199 5191 5176 5160 5146 5136 5132 5128 5122 5115 5107 5103 5099 5096 5094 5093 5093 5096 5099 5102 5105 5108 5112 5117 5122 5128 5135 5143 5149
5245 5241 5236 5231 5225 5220 5214 5211 5209 5206 5205 5206 5205 5203 5200 5197 5191 5179 5165 5152 5142 5135 5131 5125 5120 5113 5107 5103 5100 5098 5097 5097 5098 5100 5102 5104 5108 5112 5116 5122 5126 5131 5136 5141
5229 5225 5219 5214 5209 5205 5200 5197 5195 5197 5198 5199 5199 5198 5196 5192 5185 5178 5169 5159 5149 5141 5134 5128 5123 5118 5113 5109 5106 5103 5101 5100 5100 5101 5103 5104 5107 5109 5113 5117 5121 5125 5129 5132
5213 5208 5203 5198 5193 5189 5186 5184 5187 5189 5192 5194 5194 5194 5192 5188 5183 5177 5171 5164 5156 5149 5142 5136 5131 5125 5120 5116 5111 5107 5104 5103 5102 5103 5104 5105 5107 5108 5111 5113 5116 5118 5121 5124
5196 5191 5187 5182 5177 5175 5175 5177 5181 5184 5187 5189 5189 5189 5188 5186 5181 5177 5172 5166 5161 5155 5149 5144 5139 5134 5129 5125 5121 5117 5113 5110 5108 5106 5104 5103 5104 5104 5105 5107 5110 5113 5115 5118
5180 5175 5171 5169 5167 5167 5170 5174 5177 5181 5184 5185 5186 5185 5185 5182 5179 5176 5172 5167 5163 5158 5154 5149 5145 5140 5136 5132 5128 5124 5121 5118 5116 5113 5110 5108 5106 5105 5105 5105 5106 5108 5110 5112
5166 5163 5161 5161 5162 5166 5169 5172 5176 5179 5181 5182 5182 5182 5181 5180 5178 5175 5172 5168 5164 5160 5156 5152 5148 5144 5140 5136 5133 5129 5126 5123 5121 5119 5118 5116 5115 5114 5113 5112 5112 5113 5114 5116
5158 5157 5157 5160 5163 5166 5169 5172 5175 5177 5178 5179 5179 5179 5178 5177 5175 5172 5170 5167 5163 5160 5157 5153 5149 5145 5142 5138 5135 5131 5128 5126 5124 5122 5120 5119 5117 5116 5115 5114 5114 5113 5113 5114